Wind_Speed
8 6 5 4 5 5 5 5 6 6 7 7 8 9 9 9 9 9 9 10 11 11 11 11 12 12 13 13 14 15 15 16 16 16 17 17 18 18 18 18 19 19 18 18 17 16 15 14 13
7 6 5 4 5 5 5 6 6 7 8 8 9 10 10 10 10 10 11 11 11 12 12 12 13 14 14 15 15 16 17 17 18 18 19 19 20 20 20 20 20 20 20 19 19 18 16 15 14
8 8 6 5 5 6 6 6 7 7 8 9 10 10 10 10 10 11 11 11 11 12 13 14 14 15 16 16 17 17 18 18 19 19 19 21 21 22 22 23 22 22 22 21 20 19 18 16 14
8 7 7 6 6 7 7 8 9 9 9 9 10 10 10 10 10 10 11 11 12 13 13 14 14 15 16 17 17 18 19 19 20 21 21 22 23 24 24 24 25 24 23 23 22 20 18 17 15
9 8 8 7 8 8 8 9 9 9 9 10 10 10 10 10 10 11 11 11 12 13 13 13 14 15 16 17 17 19 20 21 22 22 23 24 25 26 27 26 25 25 25 24 23 22 20 18 17
10 9 9 9 8 9 9 9 9 9 9 9 9 9 10 11 11 11 12 12 12 13 13 14 14 15 16 16 17 18 20 21 22 23 24 25 26 27 28 28 27 27 26 25 25 24 22 20 19
10 10 10 10 10 11 10 9 10 9 9 9 9 9 10 11 11 11 11 12 12 13 13 14 15 15 16 17 18 18 19 20 21 23 25 26 27 28 28 29 29 28 27 26 25 25 23 22 20
11 11 11 11 11 11 10 11 10 9 9 8 9 9 10 10 11 11 11 11 13 13 14 14 15 15 16 17 17 18 18 19 20 22 23 25 27 28 28 28 29 29 29 28 27 26 25 23 21
12 12 13 13 12 12 11 11 10 9 9 8 9 9 9 10 10 10 11 12 13 14 15 16 16 16 16 17 17 18 19 19 20 21 22 24 25 27 28 28 28 28 29 29 29 28 26 25 24
13 13 13 13 13 13 12 11 10 9 8 7 8 8 9 9 10 11 12 12 13 14 15 16 16 16 17 17 18 18 19 20 21 21 22 23 24 25 27 28 28 28 29 29 30 30 28 27 26
15 15 14 14 14 13 12 10 9 8 7 7 7 8 8 9 9 10 11 12 13 14 15 16 16 17 17 18 19 19 20 20 21 22 22 22 23 24 25 27 28 28 28 28 29 30 29 28 28
16 15 15 15 14 13 11 10 9 7 7 7 7 7 8 8 9 10 11 13 14 15 15 16 16 17 18 18 19 20 20 21 21 21 21 22 22 23 25 26 27 28 29 29 29 29 29 28 29
16 15 15 14 13 13 12 10 9 8 7 6 7 7 7 8 8 10 12 13 14 14 15 16 17 18 19 20 20 21 21 21 21 21 21 21 22 22 23 25 27 28 28 29 30 30 30 29 30
17 16 15 14 13 13 12 10 9 7 6 6 6 7 7 8 8 10 12 13 14 15 16 17 18 19 20 21 21 22 22 22 22 21 21 21 21 21 22 23 25 27 28 29 30 31 31 30 29
18 16 15 14 14 13 12 10 8 7 6 6 6 6 6 7 8 10 11 13 14 16 17 18 19 20 21 22 22 23 23 23 22 21 21 20 20 20 21 22 23 25 27 28 30 31 31 31 30
18 16 15 14 13 13 11 10 8 7 7 6 6 6 6 6 7 9 11 13 15 16 17 18 20 21 22 23 23 24 24 24 23 22 21 20 19 19 20 21 22 23 25 27 29 30 30 31 32
18 16 14 14 14 13 12 10 9 8 7 6 6 6 6 6 7 9 11 13 15 16 18 19 21 22 23 23 24 25 25 24 23 22 22 21 20 19 19 19 20 21 23 25 27 29 30 31 32
18 15 14 13 13 13 12 10 9 8 7 7 6 6 6 5 6 8 11 13 15 16 18 20 21 23 24 24 25 26 26 25 24 23 22 21 20 19 19 19 18 19 20 23 25 27 28 30 32
17 15 14 14 13 13 12 10 9 8 8 7 7 6 6 5 6 8 10 13 15 16 18 20 22 23 24 25 26 26 26 26 25 24 23 21 20 19 18 18 17 17 19 21 23 25 28 29 31
16 15 14 13 13 12 12 10 9 9 8 8 7 6 5 5 6 8 10 12 14 16 18 20 22 24 25 25 26 26 26 26 26 24 23 22 21 19 18 17 16 16 17 19 21 23 26 29 30
16 14 14 13 13 13 12 10 10 9 8 8 7 6 5 5 6 7 10 12 14 16 18 20 22 24 25 25 25 26 26 26 26 25 24 23 21 20 18 16 15 14 15 17 19 22 24 27 29
15 15 15 14 13 12 11 10 9 9 8 8 7 6 5 4 5 7 9 11 14 16 18 20 22 24 25 25 26 26 26 27 26 26 24 23 22 20 18 16 14 13 13 15 16 19 22 25 28
16 15 15 14 13 12 11 10 9 8 8 8 7 6 5 4 5 7 9 11 14 16 18 20 22 24 24 25 26 26 26 27 26 26 25 24 23 21 18 16 14 12 11 12 14 17 20 23 26
16 15 15 14 13 12 11 10 9 9 9 8 7 7 6 5 5 7 9 11 13 15 18 20 22 24 24 25 26 26 27 27 27 26 25 25 23 21 19 16 14 12 10 10 11 13 16 20 23
16 16 15 14 13 12 11 10 9 9 9 8 8 7 6 5 6 7 9 11 13 15 17 20 22 23 24 25 26 26 27 27 27 26 26 25 25 23 20 17 15 12 10 9 10 11 14 17 21
16 15 15 14 13 11 11 10 9 10 9 8 7 7 6 5 5 7 9 11 13 14 17 19 21 23 24 25 25 26 27 27 27 27 26 25 25 24 21 19 15 13 11 9 9 9 11 15 18
15 15 15 14 13 12 11 10 10 10 9 8 7 7 6 6 6 7 9 10 12 14 16 18 20 22 24 25 25 26 26 27 27 27 26 25 25 24 22 20 17 15 12 10 8 8 10 12 16
13 14 14 14 13 13 11 11 10 10 10 8 8 7 6 6 6 7 9 10 12 14 15 18 20 21 23 24 25 25 26 26 27 27 27 26 24 23 23 21 19 17 14 11 8 7 8 11 13
13 13 13 14 14 13 12 11 11 10 10 9 8 8 7 7 7 7 8 10 11 13 15 17 19 20 22 23 25 25 26 26 26 27 27 26 25 24 22 21 20 19 16 12 9 7 5 7 10
13 13 13 13 13 13 12 10 11 11 10 9 9 8 8 7 7 7 8 10 11 12 14 16 18 19 21 22 23 25 25 26 26 26 26 26 25 24 23 22 21 20 17 15 11 8 5 5 7
Wind_Direction
353 349 346 352 22 33 36 21 3 351 345 344 340 334 331 328 324 318 314 312 310 305 301 301 297 292 288 284 281 281 279 275 273 273 271 267 263 260 257 257 256 258 259 260 261 264 268 267 268
346 344 342 342 11 20 17 5 347 339 338 338 334 331 330 327 325 320 316 315 313 313 308 305 299 294 290 286 283 282 280 276 274 272 271 269 267 263 260 258 257 257 258 259 261 262 264 264 263
334 335 346 359 0 356 353 350 338 333 335 335 333 333 331 329 328 325 322 316 312 309 306 305 302 297 293 289 286 285 283 279 276 273 271 268 266 264 262 259 257 257 258 259 261 261 262 259 258
326 335 341 348 353 345 339 340 337 333 333 336 338 339 338 337 335 331 327 322 316 313 310 307 305 301 298 293 289 287 284 281 278 275 272 270 266 263 262 261 258 257 258 259 260 261 259 257 255
325 329 327 331 338 333 332 332 333 333 336 340 343 343 344 342 338 334 331 328 323 320 317 314 309 306 302 296 291 288 284 281 279 276 273 269 267 265 263 260 259 257 258 257 257 256 254 253 252
320 321 322 326 326 324 324 325 329 334 339 342 343 343 344 344 341 339 337 335 333 331 327 322 318 313 309 303 297 293 289 284 280 276 273 270 268 266 263 260 258 257 258 257 256 254 249 249 248
307 310 313 318 322 319 319 326 329 331 335 339 342 344 344 343 343 343 342 341 340 338 333 327 324 320 316 310 306 301 295 290 285 281 275 271 268 266 264 261 257 255 255 255 254 252 248 247 245
295 297 301 309 317 317 318 321 326 329 330 333 339 342 343 345 346 347 347 346 343 340 338 336 332 327 322 318 314 310 303 297 291 285 280 275 270 266 264 261 258 258 255 253 252 250 248 246 243
289 293 297 301 307 311 312 315 321 323 328 332 338 343 346 347 350 351 350 349 346 344 344 342 338 334 329 324 319 314 310 305 299 292 285 279 273 268 263 261 259 257 256 252 250 249 247 246 241
282 291 295 296 297 302 305 308 314 320 324 329 338 344 347 351 353 353 353 350 347 346 346 344 341 339 336 332 326 321 314 308 304 299 292 285 278 271 265 261 259 257 255 253 250 248 247 244 241
279 286 292 294 296 298 300 301 308 314 323 331 339 345 350 353 354 354 353 350 349 349 349 348 345 343 339 334 329 325 319 313 308 303 297 290 282 274 268 262 259 256 253 251 249 246 245 243 240
275 281 288 290 293 298 300 299 304 307 314 325 332 339 345 351 353 353 353 352 351 350 350 350 348 346 342 338 333 328 323 317 312 307 302 295 287 278 270 265 260 256 253 249 248 244 243 240 236
272 279 284 284 288 292 293 294 299 301 309 320 325 332 339 344 350 352 353 352 352 353 354 353 351 349 347 344 340 336 329 323 316 309 304 298 292 283 274 267 263 258 253 250 247 243 241 238 235
269 274 277 279 283 288 289 290 295 300 306 312 319 328 334 340 348 351 352 353 355 358 358 357 354 351 348 345 342 339 335 329 324 317 309 303 295 287 279 271 265 260 254 250 246 242 240 238 235
266 269 272 274 277 282 285 285 290 295 300 304 309 318 325 335 345 349 352 355 358 360 0 358 356 353 350 348 344 341 338 333 328 323 316 309 301 291 283 274 268 261 255 251 246 242 241 238 235
262 265 268 270 273 277 281 286 287 288 288 290 296 305 314 328 341 349 355 358 359 0 359 357 355 354 351 349 347 343 340 336 330 326 321 314 307 299 290 279 271 264 256 251 246 242 239 237 235
259 261 262 266 271 273 278 282 281 280 278 279 284 294 306 324 339 350 356 359 0 1 359 356 355 354 352 350 347 345 342 339 334 330 325 319 312 304 298 287 275 266 258 252 247 243 238 235 232
256 256 258 264 267 268 272 272 270 272 271 270 277 286 299 320 338 350 357 0 1 1 359 358 357 356 354 351 349 347 345 342 339 335 330 324 317 310 303 294 283 271 261 253 247 242 238 235 230
252 255 258 261 264 265 267 268 268 267 263 267 272 279 294 316 338 351 358 1 1 1 1 360 359 357 355 353 352 351 349 347 344 341 336 331 325 318 309 301 290 276 263 254 247 242 238 236 232
249 253 255 258 263 264 264 264 264 261 259 263 269 276 290 313 337 352 359 1 2 2 1 360 359 357 356 355 354 354 353 351 349 346 342 338 333 327 317 308 296 280 267 256 248 243 239 236 232
244 247 249 254 259 262 259 257 256 254 257 261 268 277 289 313 337 354 0 3 4 3 2 0 359 358 357 357 357 357 356 354 353 350 347 344 340 334 327 319 304 286 271 262 251 244 240 236 233
236 241 244 249 255 257 256 249 245 248 255 260 268 275 286 311 338 354 0 3 3 3 2 1 360 360 360 359 358 357 356 356 354 353 351 349 346 341 335 328 316 298 279 267 255 245 240 236 233
234 238 243 249 253 254 250 245 240 247 255 261 265 273 282 307 334 351 358 1 2 2 1 1 0 0 0 0 360 359 357 357 357 356 354 352 349 346 342 336 327 311 292 274 262 250 242 236 232
233 236 241 247 249 248 245 246 244 251 258 262 264 271 281 304 330 346 355 359 360 0 1 1 1 0 0 0 1 0 360 359 358 358 357 357 355 353 350 343 336 323 303 284 270 256 244 236 231
230 234 241 243 246 247 245 248 249 255 259 260 263 270 282 303 325 342 351 356 358 359 360 0 1 1 1 1 1 2 2 2 1 0 360 359 0 359 356 351 346 336 318 299 280 261 246 236 231
230 235 242 245 245 249 249 252 252 258 259 258 263 270 281 299 320 337 346 352 354 356 358 360 0 1 2 2 2 3 3 3 2 2 2 2 2 3 3 0 356 348 335 317 294 270 250 237 232
230 236 243 247 249 253 252 253 255 256 257 258 264 272 281 296 315 330 340 347 350 353 356 358 359 1 2 3 2 2 3 4 3 3 3 3 4 5 5 4 2 357 348 335 308 281 258 242 236
232 236 242 246 253 255 252 252 254 254 256 256 260 270 280 294 309 323 334 342 347 351 355 357 358 359 1 2 3 3 3 4 5 6 5 4 4 5 5 7 5 1 357 349 336 304 268 247 239
235 240 246 250 256 258 254 252 252 253 254 257 260 266 276 287 301 315 329 338 344 348 352 354 356 358 359 1 3 4 4 4 6 7 8 8 7 7 7 6 7 5 4 359 350 332 289 255 241
238 242 250 255 256 258 260 256 254 253 254 257 261 264 271 282 294 309 323 332 339 344 348 351 353 355 357 359 1 3 4 5 6 7 9 10 10 10 10 9 8 9 7 4 359 352 330 277 253
Height
5892 5890 5890 5891 5891 5889 5888 5888 5887 5886 5885 5884 5882 5881 5880 5880 5879 5880 5877 5874 5873 5872 5871 5871 5870 5869 5868 5867 5866 5866 5865 5864 5864 5864 5864 5864 5864 5864 5865 5866 5867 5868 5869 5869 5870 5871 5872 5873 5874
5892 5891 5891 5891 5890 5889 5889 5888 5886 5885 5884 5883 5881 5880 5878 5877 5876 5875 5874 5872 5871 5870 5869 5868 5867 5867 5866 5865 5864 5863 5862 5861 5861 5860 5860 5860 5861 5861 5862 5863 5863 5864 5865 5866 5867 5868 5869 5870 5871
5893 5892 5892 5890 5890 5889 5889 5887 5886 5885 5883 5882 5880 5879 5877 5876 5874 5873 5872 5870 5869 5868 5867 5866 5865 5864 5863 5862 5861 5860 5859 5858 5857 5857 5857 5857 5857 5857 5858 5859 5859 5860 5862 5862 5863 5865 5866 5867 5868
5893 5892 5892 5891 5889 5889 5888 5887 5885 5884 5882 5881 5879 5878 5876 5875 5873 5872 5870 5869 5867 5866 5865 5863 5862 5861 5859 5858 5857 5856 5855 5854 5854 5853 5853 5853 5852 5853 5853 5854 5855 5856 5857 5858 5860 5861 5862 5864 5865
5892 5891 5891 5890 5889 5888 5887 5885 5884 5882 5881 5879 5878 5876 5875 5873 5872 5870 5869 5867 5866 5864 5863 5861 5859 5858 5856 5855 5853 5852 5851 5850 5849 5849 5848 5848 5848 5848 5848 5849 5850 5851 5852 5854 5855 5856 5858 5860 5862
5891 5890 5890 5889 5888 5887 5886 5884 5883 5881 5880 5878 5877 5875 5874 5872 5870 5869 5867 5865 5864 5862 5860 5858 5856 5854 5853 5851 5849 5848 5847 5845 5844 5844 5843 5843 5843 5843 5843 5844 5845 5846 5847 5849 5850 5852 5854 5856 5858
5891 5889 5888 5888 5887 5886 5885 5883 5882 5880 5879 5877 5876 5874 5873 5871 5869 5867 5866 5864 5862 5860 5858 5855 5853 5851 5849 5847 5845 5844 5842 5841 5840 5839 5838 5837 5837 5837 5837 5838 5839 5840 5842 5844 5845 5847 5849 5851 5854
5888 5888 5886 5886 5885 5885 5884 5882 5881 5879 5878 5876 5875 5873 5872 5871 5868 5866 5864 5862 5860 5858 5856 5853 5851 5848 5846 5844 5842 5840 5838 5836 5835 5833 5832 5832 5831 5831 5831 5832 5833 5834 5836 5838 5840 5842 5844 5847 5849
5886 5887 5885 5884 5884 5883 5882 5881 5879 5878 5876 5875 5874 5872 5871 5869 5867 5865 5863 5861 5859 5856 5853 5851 5848 5845 5843 5840 5838 5836 5834 5832 5830 5828 5827 5826 5825 5825 5825 5826 5827 5828 5830 5832 5834 5836 5839 5841 5844
5884 5884 5883 5883 5882 5881 5880 5879 5878 5877 5875 5874 5873 5871 5869 5868 5865 5864 5862 5859 5857 5854 5851 5849 5846 5843 5840 5837 5835 5832 5830 5827 5825 5823 5821 5820 5819 5819 5819 5819 5820 5822 5823 5825 5827 5830 5833 5836 5839
5882 5882 5881 5880 5880 5879 5878 5877 5876 5875 5874 5873 5871 5870 5868 5866 5864 5863 5860 5858 5855 5852 5850 5847 5844 5841 5838 5835 5832 5829 5826 5823 5820 5818 5816 5814 5813 5812 5812 5813 5814 5815 5817 5819 5821 5824 5827 5830 5833
5880 5879 5879 5878 5877 5877 5876 5875 5874 5873 5873 5872 5870 5869 5867 5865 5863 5862 5859 5857 5854 5851 5848 5845 5842 5838 5835 5832 5829 5825 5822 5819 5816 5813 5811 5809 5807 5806 5806 5806 5807 5808 5810 5812 5814 5817 5820 5823 5827
5877 5877 5877 5876 5875 5875 5874 5874 5873 5872 5871 5870 5869 5867 5866 5864 5862 5860 5858 5855 5852 5849 5846 5843 5839 5836 5833 5829 5826 5822 5818 5815 5811 5808 5806 5803 5802 5800 5800 5800 5800 5801 5803 5805 5807 5810 5813 5817 5821
5874 5874 5874 5874 5873 5873 5873 5872 5871 5870 5869 5868 5867 5866 5864 5863 5861 5859 5857 5854 5851 5847 5844 5841 5837 5834 5830 5826 5823 5819 5815 5811 5807 5804 5801 5798 5796 5794 5793 5793 5793 5794 5796 5798 5800 5803 5806 5810 5814
5871 5872 5872 5872 5871 5871 5871 5870 5869 5868 5868 5867 5866 5865 5863 5861 5860 5858 5855 5852 5849 5846 5842 5839 5835 5832 5828 5824 5820 5816 5811 5807 5803 5799 5796 5793 5791 5789 5787 5787 5787 5787 5788 5790 5793 5796 5799 5803 5807
5867 5869 5869 5869 5869 5869 5870 5869 5868 5867 5866 5865 5865 5864 5862 5860 5858 5856 5854 5851 5847 5844 5841 5837 5834 5830 5826 5822 5817 5813 5808 5804 5799 5795 5791 5788 5785 5783 5782 5781 5780 5780 5781 5783 5786 5788 5792 5796 5800
5864 5865 5866 5867 5866 5866 5866 5866 5866 5865 5864 5864 5863 5862 5861 5859 5857 5855 5852 5849 5846 5843 5839 5836 5832 5828 5824 5819 5815 5810 5805 5800 5796 5791 5787 5784 5781 5778 5776 5775 5774 5774 5775 5776 5779 5782 5785 5789 5793
5861 5862 5863 5864 5864 5864 5864 5864 5864 5863 5863 5862 5861 5860 5859 5857 5855 5853 5851 5848 5845 5841 5838 5834 5830 5826 5822 5817 5812 5807 5802 5797 5792 5788 5783 5779 5776 5773 5771 5769 5768 5768 5769 5770 5772 5775 5778 5782 5786
5857 5859 5860 5861 5861 5861 5862 5862 5862 5861 5861 5860 5860 5859 5858 5856 5854 5851 5849 5846 5843 5840 5837 5833 5829 5825 5820 5815 5810 5805 5800 5794 5789 5784 5780 5775 5772 5768 5766 5764 5762 5762 5763 5764 5766 5768 5771 5775 5779
5854 5856 5857 5858 5859 5859 5859 5860 5860 5859 5859 5858 5858 5857 5856 5854 5852 5850 5848 5845 5842 5839 5836 5832 5828 5823 5819 5814 5809 5803 5798 5793 5787 5782 5777 5772 5768 5764 5761 5759 5757 5756 5757 5757 5759 5762 5764 5768 5772
5851 5853 5855 5856 5856 5856 5857 5858 5858 5857 5857 5857 5856 5855 5854 5853 5851 5849 5847 5844 5841 5838 5835 5831 5827 5822 5817 5812 5807 5802 5797 5791 5785 5780 5775 5770 5765 5761 5757 5754 5752 5751 5751 5752 5753 5755 5758 5761 5765
5848 5850 5851 5853 5853 5854 5855 5856 5856 5855 5855 5855 5854 5854 5853 5851 5850 5848 5846 5843 5840 5837 5834 5830 5826 5821 5816 5811 5806 5801 5796 5790 5784 5779 5773 5768 5763 5758 5754 5751 5748 5747 5746 5746 5747 5749 5752 5755 5759
5846 5847 5849 5850 5851 5852 5853 5853 5855 5854 5853 5853 5853 5852 5851 5850 5848 5847 5844 5842 5839 5836 5833 5829 5825 5821 5816 5811 5806 5800 5795 5789 5783 5778 5772 5766 5761 5756 5751 5748 5745 5743 5742 5742 5743 5744 5746 5749 5752
5843 5845 5846 5847 5848 5850 5851 5851 5852 5852 5851 5851 5851 5851 5850 5849 5847 5845 5843 5841 5839 5836 5832 5829 5824 5820 5815 5810 5805 5800 5794 5789 5783 5777 5771 5765 5759 5754 5749 5746 5743 5740 5739 5739 5739 5740 5742 5744 5747
5841 5843 5844 5845 5846 5848 5848 5849 5850 5850 5849 5849 5849 5849 5848 5847 5846 5844 5842 5840 5838 5835 5832 5828 5824 5819 5815 5810 5805 5800 5794 5788 5783 5777 5771 5765 5759 5753 5749 5745 5741 5739 5737 5736 5736 5736 5738 5740 5742
5838 5840 5843 5843 5844 5845 5846 5846 5848 5848 5847 5847 5847 5847 5846 5845 5844 5843 5841 5839 5837 5834 5831 5827 5823 5819 5814 5810 5805 5800 5794 5788 5783 5777 5771 5765 5759 5754 5749 5744 5741 5738 5736 5734 5734 5733 5734 5736 5738
5836 5838 5840 5841 5841 5842 5843 5845 5845 5845 5845 5845 5845 5845 5844 5843 5842 5841 5840 5838 5836 5833 5830 5827 5823 5819 5814 5810 5805 5800 5794 5789 5783 5777 5771 5766 5760 5755 5749 5745 5741 5738 5735 5733 5731 5731 5732 5733 5735
5834 5836 5837 5838 5839 5840 5841 5842 5843 5843 5843 5843 5843 5843 5842 5842 5841 5840 5838 5836 5834 5832 5829 5826 5822 5818 5814 5810 5805 5800 5795 5789 5783 5778 5772 5766 5761 5755 5750 5746 5742 5738 5735 5732 5730 5729 5729 5730 5732
5832 5834 5835 5836 5837 5838 5839 5842 5840 5840 5840 5841 5841 5840 5840 5840 5839 5838 5837 5835 5833 5831 5828 5825 5822 5818 5814 5810 5805 5800 5795 5790 5784 5779 5773 5767 5762 5756 5752 5747 5743 5739 5735 5732 5729 5728 5728 5728 5730
5830 5831 5833 5834 5835 5835 5836 5841 5837 5837 5837 5838 5838 5838 5838 5838 5837 5836 5835 5833 5831 5829 5827 5824 5821 5817 5814 5809 5805 5800 5795 5790 5785 5779 5774 5768 5763 5758 5753 5748 5744 5740 5736 5732 5730 5728 5727 5727 5728